Dewpoint
67 67 67 67 67 67 67 67 67 67 66 66 66 66 66 65 65 66 66 66 66 65 65 65 65 65 65 64 65 65 66 66 66 66 65 65 64 64 64 64 63 63 62 62 62 62 61 61 61 61 61 60 60 60 60 59 59 58 57 56 54 52 49 48 46 47 44 46 42 40 42 42 41 41 41 42 44 45 43 41 44 48 47 44 42
67 67 67 67 67 67 67 67 68 68 67 67 66 66 66 66 66 66 66 66 66 65 65 65 65 65 65 65 64 65 66 66 66 66 65 64 64 64 63 63 63 62 61 61 61 61 60 60 60 60 60 60 60 59 59 59 58 56 55 53 51 50 50 48 47 46 42 41 41 40 42 41 39 40 40 40 41 44 38 36 42 44 44 44 42
67 66 67 67 67 68 68 67 68 68 68 67 67 66 66 66 66 66 66 66 66 66 66 65 65 65 65 65 64 65 65 66 66 66 65 64 64 63 63 63 62 61 60 60 59 59 59 60 60 60 60 59 59 59 57 56 55 54 52 51 49 49 50 48 47 46 42 42 43 37 38 39 39 38 39 39 40 39 36 35 38 44 43 41 42
67 67 67 67 68 68 68 68 68 68 68 67 67 67 66 66 66 66 66 66 66 66 66 65 65 65 65 65 65 64 65 66 66 66 65 64 64 63 63 62 61 61 60 59 59 58 58 58 58 59 59 59 58 56 55 54 53 52 52 50 49 48 49 48 46 46 45 42 41 38 42 39 41 40 36 39 39 38 35 35 37 41 42 43 41
68 67 67 67 68 68 68 68 68 68 68 68 67 67 66 66 66 66 66 66 66 66 66 65 65 65 65 65 64 64 65 65 66 66 65 64 64 63 63 62 61 60 60 59 60 58 58 57 57 57 57 56 56 55 54 53 52 51 50 49 47 48 49 47 45 48 46 42 41 43 43 41 43 39 36 37 40 38 37 37 35 37 41 40 43
67 67 67 67 67 67 67 68 68 68 68 67 67 67 67 66 66 66 66 66 66 66 66 65 65 65 65 64 64 64 64 65 65 65 65 64 64 63 63 62 61 60 59 59 59 58 58 58 57 56 56 55 55 54 53 51 50 49 48 47 45 45 46 47 48 48 46 44 42 43 41 41 38 37 32 35 37 37 36 37 39 40 39 40 42
66 66 66 66 66 66 66 66 67 67 67 68 68 67 67 67 66 66 66 66 66 66 66 65 65 65 64 64 64 64 64 64 65 65 65 64 64 63 62 62 61 60 59 59 58 58 58 57 57 56 56 55 54 53 52 50 49 47 46 45 43 44 47 47 48 46 46 44 43 43 41 40 38 35 34 36 35 36 36 37 37 40 42 39 40
64 64 65 65 65 65 65 66 66 67 67 68 68 67 67 67 67 66 66 66 65 66 65 65 65 65 64 64 64 64 63 63 64 64 64 64 63 63 62 61 60 60 59 59 58 58 57 57 56 56 55 55 54 53 51 49 47 44 45 43 45 45 45 46 46 46 45 45 43 41 39 38 39 41 43 35 33 33 38 36 32 38 38 42 42
62 62 63 63 64 64 64 64 64 65 66 67 67 67 67 67 67 67 66 65 65 66 66 65 65 64 64 64 64 64 63 63 63 64 64 64 63 62 62 61 60 60 59 59 58 57 57 56 55 55 55 56 55 53 52 51 46 43 45 44 47 45 43 43 43 42 41 42 41 40 38 36 36 36 35 33 32 32 39 37 38 42 40 38 39
61 61 61 61 62 63 63 63 62 63 65 67 67 67 67 67 67 67 66 66 65 65 65 65 64 64 64 63 63 64 63 63 60 57 59 63 63 62 62 61 60 59 59 58 58 57 56 55 55 57 56 55 53 50 48 48 49 46 44 46 47 44 42 40 39 39 39 38 40 38 37 35 35 35 37 39 41 42 42 39 35 37 40 40 41
58 60 60 61 61 61 61 61 62 63 65 67 67 67 67 67 67 67 67 66 65 65 65 65 64 64 64 63 63 63 63 62 56 53 53 55 61 62 61 60 60 59 58 58 57 56 55 54 54 56 55 54 52 47 46 45 45 45 46 49 49 44 41 39 37 40 39 37 40 38 37 36 37 37 36 38 40 41 40 39 39 40 36 35 34
46 57 60 60 61 61 61 61 63 65 66 66 67 67 67 67 67 67 67 66 66 65 65 65 64 64 64 63 63 63 63 58 51 51 52 52 56 61 61 60 59 59 58 58 57 55 53 53 53 54 53 52 51 48 47 45 43 43 44 44 43 42 42 39 38 39 39 37 38 38 37 36 38 40 37 39 39 41 39 40 39 37 37 37 38
46 47 55 59 60 60 62 63 65 66 66 66 66 66 66 67 67 67 67 66 66 65 65 65 64 64 64 63 63 63 62 56 50 50 51 51 52 58 61 60 59 58 58 57 56 54 52 52 52 53 52 53 50 45 44 44 45 44 44 44 43 40 40 42 41 39 39 37 37 38 38 38 39 40 39 39 42 38 39 37 38 37 37 36 39
52 49 51 55 58 60 61 62 64 66 67 66 66 66 66 66 66 67 67 66 66 65 65 64 64 64 64 63 63 63 63 56 49 49 50 49 50 55 61 60 59 58 58 57 56 54 52 51 51 51 50 49 45 43 42 42 44 44 44 43 43 43 40 38 40 44 44 40 38 36 40 41 38 41 43 42 41 40 39 38 42 42 41 40 40
51 52 52 53 56 58 59 61 63 65 66 67 66 65 65 66 66 66 66 66 66 65 65 64 64 64 64 64 63 63 63 53 48 48 49 49 49 53 61 60 59 58 58 57 55 54 52 51 50 49 48 46 44 42 41 41 42 43 42 42 41 40 40 42 44 47 49 49 46 45 47 46 44 45 44 42 41 40 39 42 41 39 38 39 39
52 54 54 54 56 59 58 56 59 63 65 66 66 65 65 65 65 66 66 66 66 66 65 65 64 64 64 64 63 63 63 50 48 47 48 48 48 58 60 59 58 58 57 56 54 53 51 50 49 48 47 45 44 40 41 41 40 41 41 42 41 43 44 49 45 46 49 49 47 45 45 44 43 43 42 41 42 43 44 43 42 39 37 38 37
54 55 55 56 56 58 59 58 57 58 61 64 65 65 65 65 65 65 66 66 66 66 65 65 64 64 64 64 64 63 63 52 47 47 47 47 50 60 60 59 58 57 57 55 53 52 51 50 49 47 46 45 42 38 39 41 39 40 40 41 42 43 43 42 40 41 41 39 38 37 37 38 40 40 40 41 41 40 38 37 35 39 38 36 38
50 53 54 54 56 56 59 59 59 58 59 62 63 64 65 65 65 65 65 66 66 66 65 65 65 64 64 64 64 63 63 55 46 46 47 46 53 60 59 58 57 57 57 55 53 52 51 52 51 47 46 45 40 38 38 40 39 39 39 40 41 41 42 44 42 40 38 37 36 36 36 36 37 38 39 39 39 40 36 35 34 37 36 37 34
48 49 51 53 54 55 56 58 60 58 58 58 60 62 64 64 64 65 65 65 66 66 65 65 65 64 64 64 61 62 63 55 45 46 46 46 53 59 59 58 57 57 56 54 52 52 51 51 51 48 46 44 38 38 38 40 39 39 39 39 39 39 41 42 42 41 40 38 38 37 36 40 39 38 38 38 39 42 37 35 37 33 33 36 36
48 48 49 52 54 54 57 57 57 58 58 57 58 60 62 63 64 64 65 65 66 66 65 65 65 64 64 64 64 63 62 55 47 45 46 46 50 59 59 57 57 56 55 54 52 51 50 50 48 43 42 40 38 37 37 38 39 39 39 37 37 37 44 43 42 41 41 40 39 40 38 39 41 42 38 37 40 43 37 37 37 35 35 36 37
49 49 48 51 55 58 58 57 56 57 59 60 60 60 60 62 62 64 64 65 64 64 65 65 64 64 64 64 64 63 62 56 49 44 45 46 48 53 58 57 57 56 55 52 51 50 49 49 49 43 40 39 38 37 37 37 39 39 39 37 37 39 43 40 43 45 40 41 41 41 40 40 40 41 42 36 36 39 40 38 37 36 35 36 35
50 51 52 55 59 59 59 58 57 57 59 59 59 60 61 61 62 63 64 63 60 60 60 62 64 64 64 64 64 64 60 53 52 44 45 46 48 50 57 57 56 56 55 53 51 50 49 48 48 43 39 38 37 37 37 37 37 41 39 36 36 39 42 41 41 41 40 40 40 41 40 40 40 40 41 42 41 40 38 38 38 38 37 35 34
49 51 56 60 59 58 58 58 58 58 58 59 59 60 60 61 62 61 60 60 60 60 61 62 62 63 64 64 64 63 59 54 48 48 44 45 46 48 51 53 49 55 55 53 51 50 48 48 47 42 39 38 37 37 37 37 39 40 37 36 36 38 41 42 40 41 40 39 39 39 39 38 38 38 39 39 41 41 39 38 38 38 38 38 38
54 58 57 58 58 59 59 58 59 59 58 59 59 59 59 60 59 58 58 59 60 60 61 61 61 62 63 63 63 63 57 55 48 46 46 44 46 47 47 48 48 54 55 53 51 49 48 47 45 40 39 38 37 37 37 38 40 38 36 36 36 39 44 43 41 41 41 39 38 37 38 38 36 36 37 38 38 40 41 40 38 38 37 38 38
58 58 59 59 59 59 59 58 58 59 59 58 58 58 58 59 60 60 60 60 59 60 61 60 60 60 61 61 62 61 56 54 52 46 45 44 45 45 46 46 46 47 53 53 50 49 45 43 41 39 38 37 37 37 37 39 39 37 36 36 39 39 42 44 43 43 41 40 38 37 37 38 37 36 37 37 38 39 40 42 41 40 39 39 39
58 58 58 58 58 58 58 58 58 58 58 59 59 59 58 58 58 59 60 60 59 59 60 60 60 60 60 61 62 61 55 54 52 50 46 46 45 44 45 45 46 46 49 50 45 43 41 41 40 39 38 37 38 38 39 40 38 37 36 38 39 38 40 43 43 42 42 40 39 38 37 38 39 38 38 38 38 38 39 40 42 42 42 41 40
56 56 56 57 56 57 56 57 58 58 58 57 58 59 60 59 59 58 59 60 59 59 59 59 59 60 60 61 62 60 56 54 52 50 49 49 49 49 49 48 45 45 49 48 44 44 42 42 40 38 38 37 38 38 39 38 38 39 38 39 39 38 39 41 43 42 41 40 39 38 38 38 38 38 38 39 38 38 39 40 41 41 43 42 40
57 57 56 55 56 55 55 50 54 57 57 57 57 60 60 60 60 59 59 60 60 59 59 59 58 59 60 60 61 59 56 54 52 51 49 49 50 50 51 50 48 51 52 49 46 45 43 40 39 41 42 41 42 40 39 38 37 37 38 37 37 37 39 40 42 42 41 40 38 36 35 36 34 34 34 37 38 38 39 40 41 41 42 42 40
55 56 55 55 56 54 56 56 56 57 57 58 58 59 60 61 61 61 61 61 61 60 60 60 59 60 61 61 60 59 56 55 53 48 49 46 48 51 51 51 49 51 47 43 44 43 42 42 42 42 41 40 39 39 38 37 37 38 38 38 38 36 36 35 36 38 38 36 36 35 34 34 33 34 33 34 36 36 37 38 38 39 39 38 37
56 56 56 56 57 55 55 57 58 57 57 57 59 59 51 53 57 61 61 54 52 52 54 60 60 60 60 61 61 59 58 57 45 44 44 44 44 45 46 46 45 46 41 40 42 43 42 42 41 41 41 41 40 38 38 37 38 38 37 36 37 36 34 34 33 33 37 38 36 35 34 33 32 32 34 34 35 36 36 34 36 36 35 34 33
58 58 56 55 53 54 54 55 57 58 57 56 57 57 58 53 48 51 54 54 50 49 48 49 50 51 58 62 58 51 43 42 43 42 42 43 43 43 44 44 43 40 39 41 44 42 41 41 41 41 41 42 40 40 40 39 36 35 37 37 37 36 34 34 33 33 34 37 40 39 37 35 33 32 31 31 33 35 37 35 35 37 34 34 34
56 57 57 57 55 53 55 55 55 56 57 57 56 55 56 57 56 47 45 45 47 49 49 49 50 49 50 53 52 49 43 43 42 42 42 42 43 43 43 42 40 39 40 41 41 41 41 41 40 41 41 41 40 40 40 40 39 39 37 35 35 34 34 33 35 36 36 36 36 37 38 37 35 33 32 32 30 34 36 36 36 36 35 34 35
56 56 55 55 55 56 54 55 54 55 56 57 57 56 56 54 55 56 49 45 44 44 47 49 50 49 49 49 47 46 44 43 42 42 42 42 42 42 42 40 39 39 40 43 42 41 42 42 41 41 41 41 41 40 40 41 41 41 36 34 34 33 33 33 35 38 37 38 37 36 36 35 35 33 32 31 30 30 33 33 34 34 35 35 33
56 54 52 52 54 55 56 56 55 55 55 55 56 57 56 56 56 54 53 50 52 49 46 45 47 48 49 48 45 44 42 42 42 42 42 42 42 41 40 40 39 39 42 45 45 43 44 42 41 41 41 41 40 40 40 40 40 41 38 38 33 33 32 32 34 36 37 37 37 36 35 37 34 34 33 32 30 29 30 32 35 33 32 32 31
53 47 42 45 52 54 56 55 55 55 55 54 54 54 56 56 55 54 54 53 54 55 55 54 47 47 51 47 44 43 42 42 42 42 42 41 41 40 40 42 41 42 45 47 45 44 43 42 42 41 41 40 40 41 42 43 42 40 38 34 31 31 32 31 31 33 37 38 38 37 36 36 37 34 32 31 30 30 30 32 32 31 29 30 29
51 50 50 49 51 53 54 54 53 53 53 54 54 55 55 53 54 54 52 52 53 53 53 51 50 45 45 46 45 43 43 43 43 42 41 40 40 41 43 42 43 44 44 47 46 46 44 43 42 42 42 42 42 42 43 44 43 42 42 39 32 32 34 34 32 33 36 38 38 37 36 37 37 34 33 32 33 31 31 32 31 31 31 30 28
51 50 49 49 50 52 52 52 53 51 46 48 51 54 53 52 53 53 52 52 51 51 51 48 48 46 45 45 43 42 42 42 42 41 40 40 40 44 47 45 44 44 43 45 45 45 45 44 44 44 44 44 45 45 45 45 45 44 41 42 40 36 34 36 36 35 36 37 38 38 37 36 37 36 34 32 32 32 32 32 31 30 30 30 29
51 49 48 47 48 51 50 50 50 43 48 50 52 51 51 52 52 52 50 49 49 48 49 48 47 49 48 44 45 43 41 39 38 39 39 39 40 46 47 45 44 44 43 44 44 44 44 45 44 45 45 46 45 45 45 45 45 44 41 40 38 36 36 36 36 38 37 37 37 37 36 35 36 35 33 33 32 32 32 32 31 30 29 28 28
50 45 40 38 42 48 49 48 47 48 48 48 50 48 47 49 50 49 49 47 47 48 48 48 48 46 44 42 42 42 42 42 42 40 40 42 44 47 47 46 45 45 44 44 44 44 45 45 45 44 44 44 44 45 45 45 45 45 43 41 39 38 37 36 36 37 36 36 36 36 35 35 34 34 33 33 32 32 32 32 31 30 29 28 29
50 49 44 40 45 45 46 45 47 47 46 47 49 49 49 48 48 48 47 46 48 48 48 49 47 45 43 43 42 44 44 42 41 41 41 42 43 46 47 46 46 45 45 45 45 45 45 46 45 44 43 43 44 44 45 45 45 45 43 41 39 38 38 37 36 36 36 36 36 35 34 34 34 33 33 32 32 32 32 32 32 31 31 31 30
50 49 44 43 41 46 46 46 47 46 47 47 47 48 48 47 47 45 47 47 46 47 48 48 47 46 44 41 40 42 46 43 42 41 41 42 43 45 47 47 46 46 45 45 45 45 46 46 46 46 45 46 46 46 46 46 46 45 44 41 39 38 38 38 37 37 37 36 36 36 35 34 33 33 33 32 33 33 33 32 32 32 32 31 31
49 48 48 47 46 46 45 45 45 44 45 44 46 46 46 47 48 48 46 46 44 46 48 48 48 45 40 39 40 41 45 44 42 41 42 43 43 45 46 47 48 47 46 46 46 46 47 47 47 47 47 47 47 47 46 46 46 45 44 41 39 38 37 37 37 37 36 36 35 35 35 34 33 33 33 34 33 33 33 32 32 32 31 31 30
47 48 48 47 47 46 46 46 46 46 46 45 45 42 44 47 48 47 46 45 46 45 47 46 44 43 40 38 38 39 45 44 40 42 42 43 44 44 46 47 47 47 47 47 47 48 48 48 47 48 47 47 47 46 45 45 45 44 44 41 39 38 37 36 36 36 36 35 35 34 34 34 34 33 33 33 33 33 33 33 32 32 32 31 30
48 48 47 47 47 47 46 47 46 45 46 42 43 43 44 46 46 46 46 46 46 45 45 44 43 42 41 39 39 41 44 43 43 43 43 42 44 44 46 47 47 47 47 47 49 48 48 48 47 48 48 49 48 48 48 48 47 45 43 41 38 37 37 36 35 35 35 35 35 34 34 34 34 34 33 33 33 33 33 32 32 32 32 31 31
46 48 48 48 48 47 47 46 45 46 43 44 45 45 45 45 44 44 44 44 42 43 42 41 41 41 40 41 42 43 44 44 41 41 42 43 43 45 46 46 47 47 47 48 48 48 48 48 48 47 47 49 49 49 49 49 49 48 46 44 39 38 37 36 36 35 34 34 34 34 34 34 33 33 33 33 33 33 32 32 32 31 32 31 31
43 44 44 46 48 46 46 46 43 45 45 45 45 45 45 44 44 43 42 43 42 42 42 41 42 41 41 43 43 42 43 43 42 42 42 42 43 44 45 46 46 47 47 47 48 48 48 48 46 46 46 48 49 49 49 49 48 48 47 46 45 43 39 39 37 35 35 34 34 34 33 33 33 33 33 32 32 32 32 32 32 32 31 31 31
41 41 42 43 44 46 46 45 45 44 45 45 44 44 44 44 44 43 40 41 41 42 42 42 42 43 43 44 44 43 43 43 43 42 43 44 45 45 46 46 46 47 47 47 48 48 47 46 47 46 46 48 48 48 48 48 49 48 47 47 46 45 43 40 37 36 36 36 35 34 33 33 32 32 32 32 32 32 31 31 31 31 31 30 30
38 39 39 40 42 43 45 47 46 42 44 44 44 44 43 44 43 43 43 43 43 43 43 43 44 44 43 44 43 44 44 43 43 43 44 45 45 46 46 46 45 46 46 47 47 46 46 46 47 46 46 46 46 48 48 49 49 48 48 47 46 46 43 38 38 37 36 35 35 35 34 33 32 32 31 31 31 31 31 31 31 30 30 30 29
36 37 37 38 39 41 42 45 47 47 46 45 45 45 44 45 44 44 43 43 43 44 44 44 44 44 44 43 43 43 43 42 44 44 44 45 46 46 47 46 45 47 46 46 46 46 46 47 46 46 47 47 48 48 48 48 47 47 47 47 44 38 37 37 37 40 37 36 34 34 34 33 33 32 32 31 31 31 31 31 30 30 29 29 29
35 35 35 36 37 38 40 43 45 47 47 47 46 45 45 44 44 44 44 44 44 44 44 44 44 44 44 43 42 43 44 43 44 44 44 44 45 45 46 46 46 46 46 45 45 46 45 46 46 46 47 47 47 47 47 46 46 47 47 47 39 37 36 36 36 35 36 35 34 33 33 32 32 32 32 31 31 31 30 29 30 30 29 29 28
33 34 34 35 36 37 37 39 41 43 43 44 45 46 45 46 45 45 44 44 44 44 44 44 44 44 44 44 44 44 44 45 45 45 45 45 44 45 45 45 45 45 46 46 46 46 46 46 45 44 45 42 46 46 46 45 45 46 43 39 36 35 35 35 35 34 35 35 35 33 32 32 32 32 31 31 31 31 31 30 30 30 29 29 29